Погода в Плишкарях

Россия / Пермский край     57°00′05″N   55°04′14″E
темп.,
°C
ветер,
м/с
пор.,
м/с
влажн.,
%
обл.,
%
осадки,
мм/ч
давл.,
гПа
погр.,
м
15 мая, сб
сб1523:00+19ю496026 0.0 1021130
02:00+18ю4106411 0.0 1020170
05:00+16ююз410675 0.0 1020166
08:00+19юз4864100 0.0 1020268
11:00+25зюз575355 0.0 1020855
14:00+28юз684037 0.0 10201836
17:00+28юз683699 0.0 10191519
20:00+23ююз41052100 0.0 1018185
16 мая, вс
вс1623:00+19ююз41258100 0.0 1019196
02:00+18юз41162100 0.0 1019185
05:00+16юз38646 0.0 1019122
08:00+20ююз38579 0.0 1020240
11:00+25юз57385 0.0 1019704
14:00+29юз69285 0.0 10192482
17:00+29юз68325 0.0 10182871
20:00+24юз484743 0.0 1017129
17 мая, пн
пн1723:00+20ююз4854100 0.0 1017116
02:00+18ююз375981 0.0 101798
05:00+17юз3463100 0.0 101863
08:00+20юз356298 0.0 1018184
11:00+24зюз574660 0.0 1018737
14:00+27з683390 0.0 10182294
17:00+27з68345 0.0 10172454
20:00+24з38465 0.1 1017160
18 мая, вт
вт1823:00+19зсз22659 1.2 101832
02:00+17с117199 0.3 101811
05:00+16юз1178100 1.7 101911
08:00+20зюз1267100 0.2 1019134
11:00+24з235274 0.2 1019648
14:00+27з24439 0.0 10181640
17:00+28сз463511 0.0 10172540
20:00+18в711789 0.3 1019323
19 мая, ср
ср1923:00+18ююв48739 0.5 1018143
02:00+16ю23829 0.0 101958
05:00+15вюв22826 0.0 102011
08:00+19ююв346864 0.0 1020217
11:00+24ююв455457 0.0 1020637
14:00+27ю55455 0.0 10201217
17:00+27ю45405 0.0 10191677
20:00+24ююв35575 0.0 101995